Tracking 32579 objects as of 16-Dec-2025
HD Live streaming from Space Station
objects crossing your sky now

TITAN 34B AGENA D DEB

Track TITAN 34B AGENA D DEB now!
10-day predictions


NORAD ID: 23811
Int'l Code: 1983-078C
Perigee: 450.4 km
Apogee: 13,356.6 km
Inclination: 63.3 °
Period: 253.7 minutes
Semi major axis: 13274 km
RCS: Unknown
Launch date: July 31, 1983
Source: United States (US)
Launch site: AIR FORCE WESTERN TEST RANGE (AFWTR)

Note: This is SATELLITE DEBRIS
Your satellite tracking list
Your tracking list is empty




NASA's NSSDC Master Catalog

Two Line Element Set (TLE):
1 23811U 83078C   25347.92837742  .00005038  00000-0  43853-2 0  9995
2 23811  63.3108 216.7816 4861266 247.8366  54.8330  5.67645124127483
Source of the keplerian elements: AFSPC